DW6267 Weather Reports


Display with metric or nautical units.
time (UTC)temp
F
wind
direction
speed
MPH
gust
MPH
rain 1hr
in
rain 24hr
in
rain mn
in
humidity
%
barometer
mb
20260508080335 43 250 0.0 0.0 0.00 0.00 0.00 90 1012.6
20260508070338 44 250 0.0 0.0 0.00 0.00 0.00 89 1012.9
20260508060339 46 250 0.0 0.0 0.00 0.00 0.00 85 1012.2
20260508050348 49 250 0.0 0.0 0.00 0.00 0.00 80 1011.9
20260508040410 53 250 0.0 0.0 0.00 0.00 0.00 74 1011.4
20260508030338 62 356 0.0 0.0 0.00 0.00 0.00 60 1011.5
20260508020335 65 340 1.0 0.0 0.00 0.00 0.00 51 1010.3
20260508010347 68 4 1.0 0.0 0.00 0.00 0.00 46 1010.3
20260508000412 72 316 0.0 0.0 0.00 0.00 0.00 37 1010.5
20260507230341 74 216 0.0 0.0 0.00 0.00 0.00 28 1010.1
20260507220336 74 200 0.0 0.0 0.00 0.00 0.00 32 1010.9
20260507210341 71 59 1.0 0.0 0.00 0.00 0.00 35 1011.6
20260507200344 70 141 1.0 0.0 0.00 0.00 0.00 37 1012.3
20260507190336 67 50 0.0 0.0 0.00 0.00 0.00 43 1013.1
20260507180359 64 61 0.0 0.0 0.00 0.00 0.00 48 1013.1
20260507170349 57 54 2.0 0.0 0.00 0.00 0.00 54 1014.1
20260507160401 52 63 0.0 0.0 0.00 0.00 0.00 63 1014.2
20260507150354 46 52 0.0 0.0 0.00 0.00 0.00 75 1014.7
20260507140338 42 52 0.0 0.0 0.00 0.00 0.00 82 1015.0
20260507130332 44 21 0.0 0.0 0.00 0.00 0.00 74 1014.0
20260507120341 50 7 0.0 0.0 0.00 0.00 0.00 64 1014.2
20260507110410 51 65 3.0 0.0 0.00 0.00 0.00 63 1014.8
20260507100349 52 348 4.0 0.0 0.00 0.00 0.00 59 1014.1
20260507090349 52 295 4.0 0.0 0.00 0.00 0.00 58 1014.1